EW7069 Weather Reports


Display with metric or nautical units.
time (UTC)temp
F
wind
direction
speed
MPH
gust
MPH
rain 1hr
in
rain 24hr
in
rain mn
in
humidity
%
barometer
mb
20260831103003 78 135 2.0 2.0 0.00 0.34 0.00 55 1002.9
20260831102004 78 135 2.0 2.0 0.00 0.34 0.00 55 1002.7
20260831100004 78 135 2.0 2.0 0.00 0.34 0.00 55 1003.2
20260831095004 78 135 2.0 2.0 0.00 0.34 0.00 55 1003.9
20260831093002 78 135 2.0 2.0 0.00 0.34 0.00 55 1003.6
20260831092002 78 135 2.0 2.0 0.00 0.34 0.00 55 1003.4
20260831091002 78 135 2.0 2.0 0.00 0.34 0.00 55 1003.0
20260831090002 78 135 2.0 2.0 0.00 0.34 0.00 55 1003.7
20260831085003 78 135 2.0 2.0 0.00 0.34 0.00 55 1002.9
20260831084002 78 135 2.0 2.0 0.00 0.34 0.00 55 1003.3
20260831083002 78 135 2.0 2.0 0.00 0.34 0.00 55 1003.1
20260831082002 78 135 2.0 2.0 0.00 0.35 0.00 55 1002.7
20260831081002 78 135 2.0 2.0 0.00 0.35 0.00 55 1002.9
20260831075002 78 135 2.0 2.0 0.00 0.35 0.00 55 1002.9
20260831074002 78 135 2.0 2.0 0.00 0.35 0.00 55 1002.5
20260831073003 78 135 2.0 2.0 0.00 0.35 0.00 55 1003.0
20260831072002 78 135 2.0 2.0 0.00 0.35 0.00 55 1002.5
20260831071002 78 135 2.0 2.0 0.00 0.35 0.00 55 1002.8
20260831070003 78 135 2.0 2.0 0.00 0.37 0.00 55 1002.5
20260831065002 78 135 2.0 2.0 0.00 0.37 0.00 55 1003.0
20260831064002 78 135 2.0 2.0 0.00 0.37 0.00 55 1002.6
20260831063002 78 135 2.0 2.0 0.00 0.37 0.00 55 1002.9
20260831062002 78 135 2.0 2.0 0.00 0.37 0.00 55 1002.4
20260831060003 78 135 2.0 2.0 0.00 0.37 0.00 55 1002.3
20260831055002 78 135 2.0 2.0 0.00 0.37 0.00 55 1001.8
20260831054002 78 135 2.0 2.0 0.00 0.37 0.00 55 1002.1
20260831053002 78 135 2.0 2.0 0.00 0.37 0.00 55 1002.0
20260831052002 78 135 2.0 2.0 0.00 0.37 0.00 55 1001.7
20260831051002 78 135 2.0 2.0 0.00 0.37 0.00 55 1001.2
20260831045003 78 135 2.0 2.0 0.00 0.37 0.00 55 1001.1
20260831044003 78 135 2.0 2.0 0.00 0.37 0.00 55 1001.0
20260831041003 78 135 2.0 2.0 0.00 0.37 0.00 55 1001.0
20260831040004 78 135 2.0 2.0 0.00 0.37 0.00 55 1000.4
20260831035002 78 135 2.0 2.0 0.00 0.37 0.37 55 1000.7
20260831034002 78 135 2.0 2.0 0.00 0.37 0.37 55 1000.0
20260831033002 78 135 2.0 2.0 0.00 0.37 0.37 55 1000.6
20260831032002 78 135 2.0 2.0 0.00 0.37 0.37 55 999.9
20260831030002 78 135 2.0 2.0 0.00 0.37 0.37 55 1000.0
20260831025002 78 135 2.0 2.0 0.00 0.37 0.37 55 1000.6
20260831024003 78 135 2.0 2.0 0.00 0.37 0.37 55 1000.0
20260831022002 78 135 2.0 2.0 0.00 0.37 0.37 55 998.2
20260831021003 78 135 2.0 2.0 0.00 0.37 0.37 55 998.0
20260831020003 78 135 2.0 2.0 0.00 0.37 0.37 55 998.3
20260831015002 78 135 2.0 2.0 0.00 0.37 0.37 55 998.6
20260831014003 78 135 2.0 2.0 0.00 0.37 0.37 55 998.8
20260831013003 78 135 2.0 2.0 0.00 0.37 0.37 55 999.3
20260831012002 78 135 2.0 2.0 0.00 0.37 0.37 55 999.5
20260831011003 78 135 2.0 2.0 0.00 0.37 0.37 55 1000.0
20260831010002 78 135 2.0 2.0 0.00 0.37 0.37 55 1000.3
20260831005003 78 135 2.0 2.0 0.00 0.37 0.37 55 1000.7
20260831003002 78 135 2.0 2.0 0.00 0.37 0.37 55 1001.6
20260831002003 78 135 2.0 2.0 0.00 0.37 0.37 55 1002.0
20260831001003 78 135 2.0 2.0 0.00 0.37 0.37 55 1002.5
20260831000002 78 135 2.0 2.0 0.00 0.37 0.37 55 1003.0
20260830235003 78 135 2.0 2.0 0.00 0.37 0.37 55 1003.9
20260830234002 78 135 2.0 2.0 0.00 0.37 0.37 55 1004.8
20260830233003 78 135 2.0 2.0 0.00 0.37 0.37 55 1005.9
20260830232003 78 135 2.0 2.0 0.00 0.37 0.37 55 1007.0
20260830225003 78 135 2.0 2.0 0.00 0.37 0.37 55 1003.7
20260830224002 78 135 2.0 2.0 0.00 0.37 0.37 55 1006.5
20260830222003 80 135 1.0 1.0 0.00 0.37 0.37 57 1006.1
20260830221003 80 135 1.0 1.0 0.00 0.37 0.37 57 1006.8
20260830220003 80 135 1.0 1.0 0.00 0.37 0.37 57 1006.6
20260830215003 80 135 2.0 2.0 0.00 0.37 0.37 57 1007.1
20260830214002 77 135 2.0 2.0 0.00 0.37 0.37 60 1006.2
20260830213003 76 135 2.0 2.0 0.00 0.37 0.37 61 1005.5
20260830212003 76 135 2.0 2.0 0.00 0.37 0.37 61 1005.6
20260830211002 75 135 1.0 2.0 0.00 0.37 0.37 62 1005.8
20260830210003 74 135 1.0 2.0 0.00 0.37 0.37 63 1005.4
20260830205003 74 135 1.0 2.0 0.00 0.37 0.37 63 1005.8
20260830204003 73 135 2.0 4.0 0.00 0.37 0.37 62 1005.6
20260830203003 73 135 3.0 5.0 0.01 0.37 0.37 62 1005.2
20260830202003 74 135 4.0 8.0 0.01 0.37 0.37 62 1005.0
20260830195003 73 244 4.0 6.0 0.01 0.37 0.37 63 1005.1
20260830194003 73 256 5.0 9.0 0.01 0.37 0.37 63 1005.8
20260830193003 73 268 4.0 8.0 0.00 0.35 0.35 63 1005.8
20260830192003 74 270 4.0 8.0 0.00 0.35 0.35 64 1005.6
20260830191003 74 270 4.0 7.0 0.00 0.35 0.35 65 1005.4
20260830190002 73 288 4.0 7.0 0.00 0.35 0.35 66 1006.3
20260830185003 73 271 2.0 3.0 0.00 0.35 0.35 67 1006.0
20260830183002 71 1 2.0 4.0 0.00 0.35 0.35 75 1005.2
20260830182003 71 1 2.0 4.0 0.00 0.35 0.35 75 1005.5
20260830181003 71 1 2.0 4.0 0.00 0.35 0.35 75 1006.0
20260830175003 70 1 3.0 6.0 0.00 0.35 0.35 77 1005.4
20260830174003 70 1 2.0 4.0 0.00 0.35 0.35 78 1005.2
20260830173003 70 1 2.0 4.0 0.26 0.35 0.35 79 1005.2
20260830172003 70 1 3.0 4.0 0.26 0.35 0.35 79 1006.1
20260830171003 69 1 2.0 5.0 0.26 0.35 0.35 81 1005.9
20260830170003 69 1 2.0 4.0 0.26 0.35 0.35 82 1005.9
20260830165003 68 1 2.0 4.0 0.26 0.35 0.35 83 1005.7
20260830164003 68 1 3.0 4.0 0.26 0.35 0.35 85 1005.5
20260830162003 65 0 0.0 0.0 0.00 0.09 0.09 84 1006.4
20260830161004 65 0 0.0 0.0 0.00 0.09 0.09 84 1006.3
20260830160002 65 0 0.0 0.0 0.00 0.09 0.09 84 1006.5
20260830154003 65 0 0.0 0.0 0.00 0.09 0.09 84 1006.6
20260830153003 65 0 0.0 0.0 0.00 0.09 0.09 84 1006.6
20260830152003 65 0 0.0 0.0 0.00 0.09 0.09 84 1006.5
20260830150004 65 0 0.0 0.0 0.00 0.09 0.09 84 1006.7
20260830145003 65 0 0.0 0.0 0.00 0.09 0.09 84 1006.8
20260830144003 65 0 0.0 0.0 0.00 0.09 0.09 84 1006.9
20260830140004 65 0 0.0 0.0 0.00 0.09 0.09 84 1006.8
20260830135003 65 0 0.0 0.0 0.00 0.09 0.09 84 1006.8
20260830134003 65 0 0.0 0.0 0.01 0.09 0.09 84 1006.6
20260830133003 65 0 0.0 0.0 0.04 0.09 0.09 84 1006.7
20260830132003 65 0 0.0 0.0 0.05 0.09 0.09 84 1006.7
20260830131003 65 0 0.0 0.0 0.06 0.09 0.09 84 1006.7
20260830130003 65 0 0.0 0.0 0.06 0.09 0.09 84 1006.7
20260830125003 65 0 0.0 0.0 0.07 0.09 0.09 84 1006.7
20260830123003 65 0 0.0 0.0 0.04 0.06 0.06 83 1006.5
20260830122003 65 0 0.0 0.0 0.02 0.05 0.05 83 1006.4
20260830121004 65 0 0.0 0.0 0.01 0.04 0.04 83 1006.2
20260830120003 65 0 0.0 0.0 0.01 0.04 0.04 82 1006.3
20260830114003 65 0 0.0 0.0 0.00 0.02 0.02 82 1005.9
20260830113003 65 0 0.0 0.0 0.00 0.02 0.02 82 1005.7
20260830112003 65 225 1.0 1.0 0.00 0.02 0.02 84 1005.6
20260830110004 65 225 1.0 1.0 0.00 0.02 0.02 84 1005.6
20260830105003 65 225 1.0 1.0 0.00 0.02 0.02 84 1005.6